Regional Weather Roundup
Issued by NWS

Home | Current Version | Previous Version | Text Only | Print | Product List | Glossary Off
Versions: 1 2 3 4 5 6 7 8 9 10 11 12 13 14 15 16 17 18 19 20 21 22 23 24 25 26 27 28 29 30 31 32 33 34 35 36 37 38 39 40 41 42 43 44 45 46 47 48 49 50

000
ASUS45 KSLC 281210
RWRUT

UTAH REGIONAL WEATHER ROUNDUP
NATIONAL WEATHER SERVICE SALT LAKE CITY UT
500 AM MST SAT FEB 28 2015

UTZ001>011-023>025-281300-

NORTHERN UTAH

CITY           SKY/WX    TMP DP  RH WIND       PRES   REMARKS
BRIGHAM CITY   MOCLDY    28  23  81 N9        29.69S WCI  19
HILL AFB       CLOUDY    30  17  57 E16       29.65F WCI  19
LOGAN          PTCLDY    21  17  84 CALM      29.72S
OGDEN          CLOUDY    27  25  92 NW5       29.65F WCI  22
PROVO AIRPORT  MOCLDY    34  21  60 W7        29.65F WCI  28
SALT LAKE CITY MOCLDY    30  21  69 NE6       29.65F WCI  24
VERNAL         PTCLDY    25  16  68 N3        29.76F
WENDOVER       CLOUDY    37  23  56 N15       29.63S WCI  28
HEBER CITY     PTCLDY    16  14  93 CALM      29.70F
WEST JORDAN    CLEAR     28  21  74 CALM      29.66F

$$

UTZ012>022-026-027-281300-

SOUTHERN/CENTRAL UTAH

CITY           SKY/WX    TMP DP  RH WIND       PRES   REMARKS
BLANDING       CLOUDY    30  29  95 E3        29.80F
BRYCE CANYON   LGT SNOW  25  23  92 S7        29.64R VSB 3/4 WCI  17
CEDAR CITY     FLURRIES  33  30  88 NW5       29.57S WCI  29
DELTA          CLOUDY    32  21  63 SW5       29.59S WCI  27
HANKSVILLE     CLOUDY    32  32 100 CALM      29.74F
MILFORD        CLOUDY    34  20  56 NE6       29.58F WCI  29
MOAB/CYNLANDS  CLEAR     30  24  78 SE3       29.73R
PRICE          FLURRIES  31  25  78 E5        29.71R WCI  26
ST GEORGE      CLOUDY    43  36  75 NE7       29.64S
KANAB          CLOUDY    34  34 100 N3        29.68S

$$

REGIONAL REPORTS     COLORADO/ARIZONA

CITY           SKY/WX    TMP DP  RH WIND       PRES   REMARKS
CRAIG, CO        N/A     18   9  68 E8        29.79R WCI   8
GRAND JUNCTION PTCLDY    23  18  81 E12       29.77R WCI  12
RIFLE          CLEAR     19  14  81 VRB3      29.80S
MONTROSE       MOCLDY    16  11  80 S8        29.80S WCI   5
CORTEZ         CLOUDY    29  27  92 NE3       29.74F
PAGE, AZ       SNOW      33  31  92 NE5       29.67S VSB 1/4 WCI  29
GRAND CANYON   CLOUDY    35  33  92 SW18G25   29.67R WCI  24
KINGMAN        PTCLDY    46  32  58 S8        29.65R
FLAGSTAFF      CLOUDY    35  32  88 SW21G33   29.68S WCI  24

$$

REGIONAL REPORTS    NEVADA/IDAHO/WYOMING

CITY           SKY/WX    TMP DP  RH WIND       PRES   REMARKS
LAS VEGAS, NV  MOCLDY    54  36  50 SW16      29.55R
ELY            CLOUDY    28  27  96 W5        29.58S WCI  23
ELKO           FOG       27  26  96 SW5       29.61R VSB 3/4 WCI  22
POCATELLO, ID  CLEAR     20  17  88 NE9       29.74S WCI   9
BURLEY         MOCLDY    28  20  71 E18       29.69R WCI  15
EVANSTON, WY   PTCLDY    17  14  88 E15       29.69S WCI   2
ROCK SPRINGS   PTCLDY     9   6  88 NE14      29.78R WCI  -7

$$



USA.gov is the U.S. government's official web portal to all federal, state and local government web resources and services.